Terminal Aerodrome Forecast
Issued by NWS

Home | Current Version | Previous Version | Text Only | Print | Product List | Glossary On
Versions: 1 2 3 4 5 6 7 8 9 10 11 12 13 14 15 16 17 18 19 20 21 22 23 24 25 26 27 28 29 30 31 32 33 34 35 36 37 38 39 40 41
000
FTUS45 KLKN 190533
TAFEKO
TAF
KEKO 190533Z 1906/2006 12003KT P6SM BKN150
     FM191000 VRB03KT P6SM VCFG SCT120
     FM191500 10005KT P6SM BKN080
     FM191800 VRB05KT P6SM VCSH OVC050
     FM192200 24006KT P6SM -SHSN OVC020=

USA.gov is the U.S. government's official web portal to all federal, state and local government web resources and services.